SCP
1 1 1 1 1 1 1 2 2 2 2 1 1 0 0 0 0 0 0 0 0 0 1 1 0 0 0 0 1 1 1 1 1 1 1 1 1 1 2 1 1 1 1
1 1 1 1 1 1 1 1 2 2 2 1 1 0 0 0 0 0 0 0 0 0 1 1 1 1 1 1 1 1 1 1 1 1 1 1 1 1 1 2 1 1 1
1 1 1 1 1 1 1 1 1 2 2 2 1 1 0 0 0 0 0 0 0 0 1 1 1 1 1 1 1 1 1 1 1 1 1 1 1 1 1 1 2 2 2
0 1 1 1 1 1 0 0 1 1 1 2 1 1 0 0 0 0 0 0 0 0 0 1 1 1 1 1 1 1 1 1 1 1 1 1 1 1 1 1 2 2 2
0 0 1 1 1 0 0 0 0 0 1 1 1 1 0 0 0 0 0 0 0 0 0 1 1 1 1 1 1 1 1 0 0 0 1 1 1 1 1 1 1 1 2
0 0 0 0 0 0 0 0 0 0 0 1 1 0 0 0 0 0 0 0 0 0 0 1 1 1 1 1 1 1 1 0 0 0 0 1 1 1 1 1 1 1 1
0 0 0 0 0 0 0 0 0 0 0 0 0 0 0 0 0 0 0 0 0 0 0 1 1 0 0 0 0 0 0 0 0 0 0 0 1 1 1 1 1 1 1
0 0 0 0 0 0 0 0 0 0 0 0 0 0 0 0 0 0 0 0 0 0 0 1 1 0 0 0 0 0 0 0 0 0 0 0 0 1 1 1 0 0 1
0 0 0 0 0 0 0 0 0 0 0 0 0 0 0 0 0 0 0 0 0 0 0 0 1 1 0 0 0 0 0 0 0 0 0 0 0 1 1 1 1 0 1
0 0 0 0 0 0 0 0 0 0 0 0 0 0 0 0 0 0 0 0 0 0 0 0 0 1 0 0 0 0 0 0 0 0 0 0 0 0 1 1 0 0 0
0 1 1 0 0 0 0 0 0 0 0 0 0 0 0 0 0 0 0 0 0 0 0 0 0 0 0 0 0 0 0 0 0 0 0 0 0 0 0 0 0 0 0
0 1 1 0 0 0 0 0 0 0 0 0 0 0 0 0 0 0 0 0 0 0 0 0 0 0 0 0 0 0 0 0 0 0 0 0 0 0 0 0 0 0 0
0 1 1 1 0 0 0 0 0 0 0 0 0 0 0 0 0 0 0 0 0 0 0 0 0 0 0 0 0 0 0 0 0 0 0 0 0 0 0 0 0 0 0
0 0 1 1 0 0 0 0 0 0 0 0 0 0 0 0 0 0 0 0 0 0 0 0 0 0 0 1 0 0 0 0 0 0 0 0 0 0 0 0 0 0 0
0 0 0 0 0 0 0 0 0 0 0 0 0 0 0 0 0 0 0 0 0 0 0 0 0 0 0 1 0 0 0 0 0 0 0 0 0 0 0 0 0 0 0
0 0 0 0 0 0 0 0 0 0 0 0 0 0 0 0 0 0 0 0 0 0 0 0 0 0 1 1 0 0 0 0 0 0 0 0 0 0 0 0 0 0 0
0 0 0 0 0 0 0 0 0 0 0 0 0 0 0 0 0 0 0 0 0 0 0 0 0 0 1 1 0 0 0 0 0 0 0 0 0 0 0 0 0 0 0
0 0 0 0 0 0 0 0 0 0 0 0 0 0 0 0 0 0 0 0 0 0 0 0 0 0 0 1 0 0 0 0 0 0 0 0 0 0 0 0 0 0 0
0 0 0 0 0 0 0 0 0 0 0 0 0 0 0 0 0 0 0 0 0 0 0 0 0 0 0 0 0 0 0 0 0 0 0 0 0 0 0 0 0 0 0
0 0 0 0 0 0 0 0 0 0 0 0 0 0 0 0 0 0 0 0 0 0 0 0 0 0 0 0 0 0 0 0 0 0 0 0 0 0 0 0 0 0 0
0 0 0 0 0 0 0 0 0 0 0 0 0 0 0 0 0 0 0 0 0 0 0 0 0 0 0 0 0 0 0 0 0 0 0 0 0 0 0 0 0 0 0
0 0 0 0 0 0 0 0 0 0 0 0 0 0 0 0 0 0 0 0 0 0 0 0 0 0 0 0 0 0 0 0 0 0 0 0 0 0 0 0 0 0 0
0 0 0 0 0 0 0 0 0 0 0 0 0 0 0 0 0 0 0 0 0 0 0 0 0 0 0 0 0 0 0 0 0 0 0 0 0 0 0 0 0 0 0
0 0 0 0 0 0 0 0 0 0 0 0 0 0 0 0 0 0 0 0 0 0 0 0 0 0 0 0 0 0 0 0 0 0 0 0 0 0 0 0 0 0 0
0 0 0 0 0 0 0 0 0 0 0 0 0 0 0 0 0 0 0 0 0 0 0 0 0 0 0 0 0 0 0 0 0 0 0 0 0 0 0 0 0 0 0
0 0 0 0 0 0 0 0 0 0 0 0 0 0 0 0 0 0 0 0 0 0 0 0 0 0 0 0 0 0 0 0 0 0 0 0 0 0 0 0 0 0 0
Wind_Speed
2 1 1 1 1 1 1 1 1 1 1 1 1 2 1 1 1 1 1 2 3 3 2 3 4 4 4 4 4 4 4 5 5 6 5 5 6 7 7 7 7 8 7
2 2 1 1 1 1 0 0 0 1 1 1 1 1 1 1 1 1 1 2 3 4 4 4 4 4 5 5 5 5 5 5 6 6 7 7 7 7 8 8 8 8 8
2 2 1 1 1 1 1 1 1 1 1 1 1 1 1 1 1 1 1 1 1 3 4 4 5 5 6 6 6 6 6 6 6 7 7 8 8 8 9 9 9 9 9
2 2 1 0 1 1 1 1 1 1 1 1 1 1 1 1 1 1 1 1 1 2 3 5 6 6 6 7 7 7 7 7 7 7 8 8 9 9 9 10 10 9 10
2 2 1 0 1 1 1 1 1 1 1 1 1 0 1 1 1 1 1 2 2 2 2 4 6 6 7 7 8 8 8 7 8 8 8 9 9 10 10 10 10 10 9
2 2 1 1 1 1 1 1 1 1 1 1 1 1 1 1 1 1 1 1 2 2 2 2 2 3 6 7 8 9 9 8 8 8 9 9 10 10 10 10 11 11 10
2 2 1 1 1 1 1 1 1 1 1 1 1 2 2 2 1 1 1 1 2 2 2 2 2 2 2 6 8 9 9 9 9 9 9 10 10 11 11 10 10 11 10
1 2 2 1 1 1 1 1 1 1 1 1 1 1 1 2 2 2 1 1 1 1 2 2 1 1 2 2 5 8 8 9 10 10 10 11 11 12 12 11 10 10 11
1 1 1 1 1 1 0 0 1 2 1 0 1 1 1 2 2 2 1 1 1 1 1 1 1 1 1 2 3 5 8 9 10 11 11 12 12 12 13 13 12 11 11
1 1 1 1 1 1 1 0 0 1 2 1 0 0 1 2 1 2 2 1 2 2 2 2 1 1 1 1 3 6 8 9 10 11 12 12 13 13 13 14 13 13 12
1 1 1 1 1 1 1 1 1 0 1 2 1 1 0 0 1 1 3 2 2 2 2 2 2 2 1 1 2 4 7 9 10 11 12 12 13 13 14 14 14 13 13
0 0 1 1 1 1 0 0 0 0 1 1 1 1 1 1 1 2 2 3 3 3 3 2 2 2 1 2 3 6 7 9 10 12 12 12 12 13 13 13 13 13 13
1 1 1 1 1 1 1 1 0 0 1 1 2 1 1 2 1 1 2 2 3 3 2 2 2 2 2 2 3 6 7 9 10 12 12 12 13 13 13 13 13 13 13
1 2 2 2 1 1 1 1 1 1 1 1 2 2 1 2 2 2 2 2 3 3 2 3 2 2 2 2 4 6 5 9 11 11 12 12 13 13 13 13 13 13 13
1 1 2 2 2 2 2 1 1 2 2 2 2 2 2 2 2 2 2 2 2 4 5 3 2 2 2 2 5 3 4 9 11 11 12 12 12 13 13 12 13 13 13
1 1 2 2 2 2 2 2 2 2 2 2 2 2 2 2 2 2 2 2 2 3 5 3 3 3 3 3 6 4 5 10 11 12 13 13 12 12 13 12 13 13 13
2 2 2 2 2 2 2 2 3 3 3 3 3 3 4 3 2 2 2 2 2 2 5 5 3 3 3 3 4 4 5 4 5 11 13 13 12 12 13 12 12 13 13
3 3 2 2 3 3 3 3 4 4 4 4 4 3 4 3 3 3 2 3 3 3 4 6 4 3 4 4 4 5 5 5 5 10 12 13 13 12 12 12 12 12 12
3 3 3 3 3 3 3 4 4 4 4 5 4 4 5 4 4 3 3 3 3 3 3 4 5 3 3 3 3 4 5 4 5 8 10 11 12 12 12 12 11 11 10
3 3 3 3 3 3 4 4 4 4 4 4 4 4 5 5 5 5 4 4 3 3 3 4 4 4 3 3 2 3 4 4 5 5 7 8 11 12 11 11 10 10 10
3 3 3 3 3 3 4 4 4 4 4 4 4 4 5 6 7 6 4 4 4 3 3 4 4 4 3 3 3 3 5 5 5 3 4 5 5 4 5 7 9 10 10
3 2 3 3 4 4 6 8 6 4 4 4 4 4 4 5 7 9 10 9 7 5 5 4 4 5 5 4 3 3 4 4 5 2 4 6 4 4 4 4 8 10 10
2 3 3 3 4 6 8 9 8 4 4 4 4 4 4 4 6 4 7 9 9 11 9 5 6 6 5 4 4 4 4 4 6 4 4 6 4 4 4 6 11 10 9
3 3 4 4 4 6 8 9 8 4 4 4 5 5 5 5 5 5 4 5 6 6 8 6 6 6 5 4 4 4 5 5 5 4 2 5 4 4 5 4 8 9 9
3 4 4 4 5 6 8 8 7 3 3 4 4 4 5 5 8 9 5 5 6 6 8 10 10 8 8 8 5 2 2 3 5 4 2 2 3 4 4 4 5 8 9
4 3 4 4 5 5 8 8 7 3 3 4 3 4 7 8 9 9 6 5 7 6 4 4 5 6 5 6 7 4 3 3 3 4 2 1 2 3 4 3 2 4 5
Wind_Direction
112 82 73 55 31 34 49 28 14 20 21 12 26 49 23 9 13 12 359 21 22 19 9 355 351 344 337 332 331 329 326 325 321 321 319 314 311 305 301 298 287 279 275
129 120 94 63 20 352 356 53 40 49 25 31 28 27 23 10 23 26 11 9 29 29 25 15 5 354 348 344 342 343 338 333 329 325 323 318 313 310 304 300 300 286 279
124 122 105 63 348 346 7 37 34 49 48 39 20 9 23 15 22 20 25 21 15 29 36 34 28 22 13 3 354 350 346 343 342 337 331 325 319 312 309 303 297 296 289
105 105 102 59 337 8 35 54 43 51 35 24 0 342 356 7 15 36 55 52 41 32 32 40 37 29 21 11 3 358 356 352 347 342 337 332 327 320 314 310 303 294 290
92 99 100 70 40 48 32 44 56 57 30 359 336 346 345 8 356 69 68 62 56 52 38 39 35 29 21 11 0 355 352 352 348 340 333 330 325 320 316 312 308 299 294
74 86 74 42 52 60 35 49 56 40 38 346 357 10 343 347 24 69 80 67 53 50 46 39 26 22 24 13 4 356 351 348 345 340 336 334 330 325 318 311 312 306 300
72 80 71 43 51 67 51 68 82 58 29 18 43 9 350 4 27 45 60 64 49 40 40 37 29 22 6 8 1 356 354 350 345 341 338 336 334 332 325 319 320 319 311
62 81 80 60 57 70 42 58 96 104 35 39 80 86 351 336 343 355 11 75 43 19 18 11 19 25 5 351 342 352 352 347 342 338 336 336 334 331 329 325 324 321 317
67 81 93 95 79 94 84 46 124 138 165 349 84 139 157 237 299 310 308 349 351 345 331 328 348 347 346 344 325 340 346 341 335 332 331 331 330 329 329 328 322 321 319
85 84 87 106 102 90 85 6 85 168 160 193 270 326 196 177 181 292 305 313 317 300 283 299 304 302 316 324 323 336 341 337 331 328 326 326 325 326 326 327 325 322 322
94 106 115 111 100 85 82 37 29 116 164 185 193 201 261 282 184 197 268 296 303 275 266 255 252 265 276 307 299 327 338 333 328 325 323 323 324 324 323 323 321 319 317
94 155 141 139 149 160 186 210 183 161 182 187 196 187 191 201 213 203 241 277 281 276 269 251 237 244 256 284 298 323 325 324 322 320 318 319 322 322 320 320 320 319 318
214 224 208 204 204 210 214 204 170 239 205 197 205 215 212 225 217 216 235 270 283 288 279 266 242 236 276 275 284 311 310 316 317 316 315 317 319 321 318 317 319 319 318
223 217 210 216 220 221 226 206 196 238 215 214 226 224 226 240 230 217 218 246 288 291 275 268 269 238 270 273 289 307 300 309 312 313 313 315 316 316 315 314 316 317 316
215 205 200 214 226 222 218 208 220 236 213 221 227 229 237 246 239 235 217 209 229 275 280 264 268 279 286 275 291 291 290 300 309 310 311 313 313 312 311 312 314 313 313
222 214 215 222 235 234 223 211 224 232 217 232 226 222 239 244 242 239 230 220 212 236 267 272 269 281 288 298 297 293 284 299 303 307 309 309 309 311 309 310 311 309 308
219 220 224 225 231 237 235 226 231 228 225 240 241 232 240 240 236 238 234 227 228 222 258 279 277 281 277 283 295 290 283 279 287 300 304 305 306 307 306 307 308 307 306
223 226 224 226 235 239 238 235 238 237 226 235 239 237 245 243 239 239 232 234 237 233 246 275 284 282 274 273 281 287 292 291 283 295 302 304 303 303 305 307 307 306 307
227 230 222 228 238 242 242 241 236 237 231 234 234 234 242 235 244 246 240 240 243 251 246 262 276 276 279 280 290 293 289 287 291 297 303 303 302 302 304 308 308 307 309
227 234 235 234 238 244 247 245 243 240 239 240 237 237 239 232 236 239 244 241 244 250 253 261 273 278 274 276 284 294 302 299 298 299 299 301 301 302 302 306 307 306 306
237 235 239 247 248 247 246 241 243 235 234 243 246 242 241 246 249 249 252 241 235 243 253 263 272 280 278 282 282 284 292 303 296 286 300 300 300 294 294 300 303 303 304
248 242 244 249 258 262 264 260 255 235 232 236 249 252 252 254 259 264 266 260 249 242 245 252 264 266 269 271 280 279 291 308 303 301 313 300 292 288 287 283 295 302 304
248 252 253 250 258 266 270 269 260 241 231 235 239 246 261 263 267 260 266 268 264 260 255 253 254 256 259 254 261 269 267 274 277 287 307 294 293 284 286 295 297 298 304
250 253 255 252 256 268 273 272 266 249 236 239 238 236 245 256 258 262 258 261 261 258 256 252 248 254 255 247 238 254 263 279 282 277 264 278 290 288 295 291 293 297 307
253 253 253 249 254 270 275 275 270 244 243 248 248 245 248 252 263 270 265 262 270 268 268 263 263 264 266 267 260 253 264 283 294 289 251 265 292 303 294 285 293 307 314
247 255 261 255 253 264 275 277 269 243 245 256 258 256 259 262 268 272 263 253 262 265 263 269 267 269 263 260 257 231 224 249 277 283 245 272 284 318 307 288 295 311 311